This demonstration page uses our WeatherBlox Daily Observations layout. Learn more.

38.89511, -77.03637

Hourly Observations for July 26, 2019

Temp ( °F °C ) Dew Point ( °F °C ) Humidity (%) Winds ( mph kmh ) Pressure ( in mb ) Visibility ( mi km ) Precip ( " mm )
12:52 am 00:52 Clear 74 23.3 64 17.8 71 71 N 5 7 30.18 1022 10 16.09344 0 0
1:52 am 01:52 Clear 73 22.8 65 18.3 76 76 Calm 30.18 1022 10 16.09344 0 0
2:52 am 02:52 Clear 73 22.8 65 18.3 76 76 Calm 30.21 1023 10 16.09344 0 0
3:52 am 03:52 Clear 71 21.7 64 17.8 79 79 N 5 7 30.21 1023 10 16.09344 0 0
4:52 am 04:52 Clear 70 21.1 65 18.3 84 84 N 5 7 30.21 1023 10 16.09344 0 0
5:52 am 05:52 Mostly Clear 69 20.6 63 17.2 81 81 N 5 7 30.24 1024 10 16.09344 0 0
6:52 am 06:52 Mostly Sunny 71 21.7 63 17.2 76 76 N 3 6 30.24 1024 10 16.09344 0 0
7:52 am 07:52 Mostly Sunny 74 23.3 66 18.9 76 76 N 3 6 30.24 1024 10 16.09344 0 0
8:52 am 08:52 Mostly Sunny 76 24.4 67 19.4 74 74 Calm 30.27 1025 10 16.09344 0 0
9:52 am 09:52 Mostly Sunny 81 27.2 64 17.8 57 57 ENE 3 6 30.27 1025 10 16.09344 0 0
10:52 am 10:52 Mostly Sunny 85 29.4 59 15 42 42 Calm 30.27 1025 10 16.09344 0 0
11:52 am 11:52 Partly Cloudy 86 30 58 14.4 39 39 ESE 3 6 30.27 1025 10 16.09344 0 0
12:52 pm 12:52 Partly Cloudy 86 30 57 13.9 37 37 ESE 5 7 30.27 1025 10 16.09344 0 0
1:52 pm 13:52 Partly Cloudy 87 30.6 58 14.4 37 37 Calm 30.24 1024 10 16.09344 0 0
2:52 pm 14:52 Partly Cloudy 87 30.6 58 14.4 37 37 SE 7 11 30.24 1024 10 16.09344 0 0
3:52 pm 15:52 Partly Cloudy 88 31.1 57 13.9 35 35 VRB 3 6 30.24 1024 10 16.09344 0 0
4:52 pm 16:52 Mostly Cloudy 87 30.6 58 14.4 37 37 E 8 13 30.21 1023 10 16.09344 0 0
5:52 pm 17:52 Partly Cloudy 86 30 57 13.9 37 37 SE 9 15 30.21 1023 10 16.09344 0 0
6:52 pm 18:52 Partly Cloudy 85 29.4 56 13.3 37 37 ESE 8 13 30.21 1023 10 16.09344 0 0
7:52 pm 19:52 Mostly Sunny 82 27.8 57 13.9 42 42 ESE 7 11 30.21 1023 10 16.09344 0 0
8:52 pm 20:52 Mostly Clear 79 26.1 59 15 50 50 SSE 5 7 30.24 1024 10 16.09344 0 0
9:52 pm 21:52 Clear 78 25.6 61 16.1 56 56 S 5 7 30.24 1024 10 16.09344 0 0
10:52 pm 22:52 Clear 78 25.6 62 16.7 58 58 S 3 6 30.24 1024 10 16.09344 0 0
11:52 pm 23:52 Mostly Clear 76 24.4 64 17.8 67 67 Calm 30.24 1024 10 16.09344 0 0

Powered by AerisWeather